Location: Byszew
(52.1813°N, 19.2693°E)
Time: 21:16:07
(UTC+00:00)

Daily predictions for brighter satellites

Satellite Brightness Start Highest point End
(mag) Time Altitude Azimuth Time Altitude Azimuth Time Altitude Azimuth
Cosmos 1844 4.2 16:51:44 10° NNW 16:57:14 42° NE 17:02:39 10° ESE
Cosmos 2278 4.0 16:52:03 10° SW 16:57:45 75° WNW 17:03:30 10° NNE
MOS 1 Rocket 3.5 16:53:56 10° NNE 16:58:57 84° ESE 17:04:14 10° SSW
H-2A R/B 2.4 16:54:59 10° N 16:59:03 65° WNW 17:03:07 10° SSW
SKYMED 2 3.5 16:55:38 10° NNE 17:00:01 75° ESE 17:04:20 10° S
Cosmos 2278 Rocket 3.8 16:58:06 10° NNW 17:02:07 19° NNE 17:06:07 10° ENE
Cosmos 2360 Rocket 3.2 16:58:57 10° SSE 17:03:20 24° ESE 17:07:44 10° NE
HJ-1C 3.8 17:01:23 10° SE 17:04:29 39° ENE 17:07:37 10° N
Meteor 1-19 Rocket 4.4 16:58:58 10° N 17:04:56 63° ENE 17:10:42 10° SSE
Cosmos 1805 Rocket 4.0 17:00:48 10° SSW 17:05:11 68° WNW 17:09:37 10° N
Cosmos 1470 Rocket 4.3 17:01:52 10° SSE 17:05:52 33° E 17:09:51 10° NNE
Ariane Rocket 4.3 17:03:21 10° ESE 17:07:07 21° NE 17:10:53 10° N
CZ-4B R/B 1.1 17:06:10 10° NNE 17:09:14 83° ESE 17:12:18 10° SSW
Meteor 2-4 Rocket 4.2 17:04:08 10° N 17:09:42 44° ENE 17:15:19 10° SE
Cosmos 1602 3.9 17:07:36 10° S 17:11:22 50° E 17:15:12 10° NNE
Cosmos 2333 Rocket 3.8 17:11:07 10° ESE 17:13:38 13° E 17:16:10 10° ENE
Okean O Rocket 4.1 17:11:11 10° SSW 17:14:54 27° W 17:18:39 10° NW
Cosmos 1703 Rocket 4.3 17:11:04 10° N 17:15:02 31° ENE 17:18:56 10° SE
Cosmos 1500 3.9 17:15:34 10° SSE 17:18:49 29° E 17:22:06 10° NNE
Cosmos 1980 Rocket 3.0 17:13:24 10° SW 17:18:57 53° NW 17:24:35 10° NNE
SL-08 RB Rocket 3.9 17:16:10 10° SE 17:20:32 51° ENE 17:24:59 10° N
Cosmos 1943 Rocket 4.3 17:18:34 10° NNW 17:20:46 12° N 17:22:58 10° NE
Cosmos 1689 Rocket 2.4 17:21:06 10° NNE 17:23:51 40° E 17:26:35 10° S
SJ-11-01 4.3 17:20:31 10° SSE 17:25:12 86° WSW 17:29:58 10° NNW
ERBS 2.2 17:23:16 10° WSW 17:26:35 83° SSE 17:29:28 13° ENE
Cosmos 1933 Rocket 4.1 17:22:48 10° SSE 17:26:45 35° E 17:30:46 10° NNE
Cosmos 1862 Rocket 3.7 17:22:46 10° NNW 17:27:18 85° W 17:31:47 10° S
Cosmos 1867 4.3 17:22:47 10° WSW 17:28:08 53° NW 17:33:32 10° NE
Cosmos 1666 Rocket 3.6 17:23:52 10° SSW 17:28:12 81° W 17:32:33 10° N
BREEZE-M DEB (TANK) 3.9 17:25:56 10° SSW 17:29:13 17° SSE 17:30:48 13° SE
Aureole 2 Rocket 1.8 17:29:24 10° NNW 17:31:58 72° WSW 17:34:27 10° SSE
Cosmos 2322 Rocket 2.2 17:27:20 10° SSW 17:32:51 61° ESE 17:38:23 10° NE
Cosmos 2242 Rocket 3.8 17:28:28 10° N 17:32:53 49° ENE 17:37:14 10° SSE
Cosmos 1932 4.5 17:27:07 10° SSW 17:33:35 78° SE 17:40:00 10° NE
Nadezhda 3 Rocket 4.1 17:28:03 10° N 17:34:28 88° E 17:40:51 10° S
Sich 1 4.3 17:31:38 10° SSW 17:35:52 45° WNW 17:40:09 10° N
Resurs 01 Rocket 3.3 17:35:07 14° ENE 17:36:18 16° NE 17:38:56 10° NNE
Cosmos 1461 3.4 17:33:28 10° SW 17:38:13 76° NW 17:42:58 10° NE
ATLAS 5 CENTAUR R/B 3.3 17:26:42 10° WSW 17:38:49 64° NW 17:42:19 10° NE
Meteor 1-25 Rocket 4.4 17:34:02 10° SSW 17:39:48 82° WNW 17:45:31 10° NNE
COSMOS 2428 4.1 17:40:02 10° SE 17:42:29 16° ESE 17:42:29 16° ESE
Cosmos 2074 Rocket 4.3 17:37:38 10° SSW 17:43:54 71° WNW 17:50:11 10° N
Cosmos 2154 Rocket 3.9 17:37:51 10° S 17:44:04 82° E 17:50:18 10° NNE
YAOGAN 1 3.4 17:40:26 10° S 17:44:40 53° W 17:48:55 10° NNW
Helios 1A Rocket 3.0 17:40:42 10° SSE 17:44:45 81° WSW 17:48:49 10° NNW
Cosmos 1295 Rocket 4.4 17:38:58 10° S 17:45:10 72° E 17:51:20 10° NNE
Abrixas rocket 2.6 17:42:55 10° WSW 17:45:12 32° S 17:45:57 26° SE
ASTEX 1 4.3 17:42:22 10° NNE 17:46:31 27° E 17:50:36 10° SE
FALCON 9 DEB 2.9 17:43:45 10° W 17:46:57 74° N 17:48:33 26° E
Meteor 1-14 Rocket 4.1 17:42:01 10° S 17:47:30 65° E 17:52:59 10° NNE
Cosmos 1610 Rocket 4.5 17:41:34 10° S 17:47:46 85° E 17:54:07 10° N
COSMO-SKYMED 1 4.0 17:43:56 10° N 17:48:01 41° WNW 17:52:05 10° SW
SJ-6B 3.3 17:46:54 13° SE 17:50:14 42° ENE 17:54:04 10° N
Meteor 1-11 Rocket 4.5 17:45:44 10° SSE 17:50:34 29° E 17:55:20 10° NNE
Cosmos 2219 Rocket 3.2 17:46:27 10° SSE 17:50:34 22° ESE 17:53:41 14° ENE
GP-B 3.0 17:47:54 10° SSE 17:52:17 65° E 17:56:43 10° N
MetOp-A 4.1 17:48:22 10° SSE 17:53:38 63° ENE 17:58:57 10° N
Cosmos 1992 Rocket 3.9 17:51:25 10° SSW 17:56:39 80° ESE 18:01:55 10° NNE
USA 234 3.8 17:52:33 16° ENE 17:57:04 35° SE 18:02:58 10° SSW
SL-16 R/B 2.3 17:51:44 10° SW 17:57:24 79° WNW 18:03:08 10° NNE
ARGOS 3.7 17:52:24 10° S 17:57:46 62° WSW 18:03:11 10° NNW
FALCON 9 DEB 2.9 17:56:14 10° W 17:59:26 76° N 18:00:32 37° E
Meteor 1-13 Rocket 4.4 17:53:38 10° N 17:59:32 58° ENE 18:05:20 10° SSE
SeaSat 1 2.4 17:55:48 10° NE 18:00:42 60° ESE 18:05:35 10° SSW
SJ 16-02 2.4 17:57:46 10° N 18:01:35 27° NE 18:02:34 25° ENE
Okean 1-7 2.9 17:58:21 10° N 18:02:46 78° ENE 18:07:06 10° SSE
OPS 6432 4.4 17:58:43 10° SW 18:02:50 73° SE 18:04:36 26° NE
Resurs 1-3 4.2 18:01:24 26° ESE 18:03:01 35° ENE 18:07:03 10° N
OBJECT-B 1.1 18:03:22 37° ESE 18:03:57 42° ENE 18:07:03 10° N
Cosmos 1633 Rocket 4.3 18:00:08 10° SSW 18:04:23 45° WNW 18:08:40 10° N
Cosmos 2369 Rocket 4.3 18:03:25 10° N 18:05:48 13° NNE 18:08:10 10° NE
CZ-2C R/B 2.6 18:00:43 10° NNE 18:06:16 80° ESE 18:11:40 10° SSW
SAR-Lupe-4 4.0 18:05:21 10° N 18:08:55 63° WNW 18:12:27 10° SSW
IRS-1A Rocket 4.3 18:03:52 12° SE 18:09:04 60° ENE 18:14:33 10° N
CZ-4 R/B 3.8 18:06:07 10° SSW 18:09:19 24° W 18:12:35 10° NW
H-2A R/B 3.7 18:04:18 10° SSW 18:09:21 38° W 18:14:25 10° NNW
Cosmos 2322 4.2 18:04:53 10° S 18:10:04 37° ESE 18:15:17 10° NE
DMSP B5D2-2 4.0 18:07:28 10° NNE 18:12:41 62° ESE 18:17:50 10° S
USA 305 3.0 18:08:48 10° W 18:13:04 68° N 18:14:50 34° ENE
Gbstr 26 Del rocket 3.3 18:11:13 10° W 18:15:49 87° S 18:18:27 31° E
SL-8 Rocket 3.9 18:09:53 10° S 18:16:00 62° E 18:22:07 10° NNE
Cosmos 2237 4.1 18:10:57 10° SSW 18:16:41 84° ESE 18:22:28 10° NNE
SL-4 R/B 1.8 18:14:27 10° W 18:17:55 57° SSW 18:18:38 45° SSE
Cosmos 962 Rocket 4.4 18:11:51 10° S 18:18:04 87° E 18:24:26 10° N
Cosmos 1869 Rocket 3.6 18:16:44 10° S 18:20:57 52° E 18:25:16 10° NNE
USA 307 3.0 18:20:06 10° W 18:24:23 68° N 18:25:41 42° ENE
USA 186 1.9 18:25:07 49° W 18:25:07 49° W 18:27:25 10° NNW
Cosmos 1339 Rocket 4.5 18:19:12 10° N 18:25:25 87° W 18:31:42 10° S
ERS-2 3.5 18:22:40 10° N 18:26:07 40° WNW 18:29:32 10° SW
ATLAS CENTAUR R/B 0.9 18:22:44 10° SW 18:26:21 72° SE 18:26:57 57° ENE
USA 306 3.0 18:23:30 10° W 18:27:47 69° N 18:28:56 45° ENE
Cosmos 1378 3.1 18:25:35 10° N 18:29:15 57° ENE 18:29:15 57° ENE
Cosmos 1844 Rocket 3.6 18:24:21 10° NW 18:29:41 47° WSW 18:34:58 10° S
FALCON 9 DEB 2.8 18:26:44 10° WNW 18:29:48 83° WNW 18:29:48 83° WNW
Cosmos 2366 rocket 4.0 18:24:46 10° S 18:31:00 65° E 18:37:19 10° NNE
FALCON 9 DEB 2.9 18:28:40 10° WNW 18:31:45 80° NW 18:31:45 80° NW
Cosmos 1777 Rocket 4.1 18:29:21 10° NNW 18:34:36 76° WSW 18:37:59 22° SSE
USA 308 3.0 18:30:42 10° W 18:34:58 69° N 18:35:51 52° ENE
Cosmos 1666 2.6 18:31:40 10° SSW 18:35:23 81° WNW 18:39:08 10° N
Landsat 7 4.5 18:38:12 36° ENE 18:38:12 36° ENE 18:42:23 10° N
SPOT 3 Rocket 3.7 18:37:59 44° ESE 18:39:11 54° ENE 18:44:17 10° N
Cosmos 2341 Rocket 4.1 18:33:12 10° SSW 18:39:31 77° WNW 18:45:49 10° N
Meteor 1-5 Rocket 4.2 18:34:28 10° SSW 18:39:51 77° WNW 18:45:27 10° N
Cosmos 2333 4.1 18:34:58 10° SSW 18:40:33 65° ESE 18:46:14 10° NE
Okean 3 3.4 18:37:02 10° NNW 18:41:19 84° W 18:42:57 37° S
ARIANE 5 R/B 4.1 18:44:06 23° NE 18:44:06 23° NE 18:46:37 10° N
Ariane Rocket 3.1 18:42:04 21° S 18:45:33 78° WSW 18:50:42 10° NNW
Cosmos 2221 Rocket 3.5 18:41:14 10° N 18:45:38 62° ENE 18:45:39 62° ENE
Cosmos 2360 Rocket 2.4 18:41:09 10° SW 18:46:48 73° WNW 18:52:30 10° NNE
Cosmos 2278 Rocket 2.3 18:41:47 10° NNW 18:47:26 60° NE 18:48:36 49° E
SPOT 1/Viking Rocket 4.2 18:49:19 36° NE 18:49:19 36° NE 18:53:43 10° N
Cosmos 1727 Rocket 3.8 18:43:13 10° N 18:49:27 81° E 18:52:57 28° SSE
Meteor 2-20 4.3 18:45:15 10° N 18:51:23 76° ENE 18:54:04 36° SSE
Cosmos 990 Rocket 4.3 18:48:59 10° NNW 18:53:59 46° ENE 18:54:01 46° ENE
Cosmos 2333 Rocket 2.1 18:51:12 10° SSW 18:56:50 69° ESE 19:02:33 10° NE
Cosmos 1821 Rocket 4.2 18:57:21 47° E 18:57:21 47° E 19:03:01 10° NNE
Cosmos 2218 Rocket 4.0 18:51:39 10° S 18:58:04 84° W 19:04:31 10° N
Cosmos 1000 Rocket 4.5 18:56:31 10° N 19:02:46 63° ENE 19:03:53 54° ESE
ERBS 3.9 18:59:52 10° W 19:02:19 33° NW 19:02:19 33° NW
Cosmos 1943 Rocket 3.5 19:02:03 10° NNW 19:06:43 25° NE 19:06:52 25° NE
MetOp-B 4.0 19:08:50 67° ENE 19:08:56 67° ENE 19:14:16 10° N
IGS 5A 4.4 19:11:13 40° N 19:11:13 40° N 19:14:02 10° N
Resurs 01 Rocket 1.7 19:12:40 71° NNW 19:12:40 71° NNW 19:16:39 10° NNW
Cosmos 2123 Rocket 4.2 19:09:37 10° N 19:15:27 51° ENE 19:15:27 51° ENE
Cosmos 2322 Rocket 3.8 19:12:11 10° WSW 19:17:15 33° NW 19:22:21 10° NNE
Lacrosse 4 Rocket 4.1 19:14:19 10° SSW 19:14:29 11° SSW 19:14:29 11° SSW
ASTEX 1 4.3 19:21:04 10° N 19:25:45 47° WNW 19:30:11 11° SSW
COSMOS 2428 3.4 19:21:13 10° SSW 19:32:11 12° NNE 19:32:38 10° NNE
Cosmos 1937 Rocket 4.1 19:22:31 10° NNW 19:26:30 44° NNE 19:26:30 44° NNE
USA 245 4.3 19:29:59 73° NE 19:29:59 73° NE 19:35:55 10° NNW
Meteor 1-11 Rocket 4.4 19:28:10 10° SSW 19:33:43 53° WNW 19:39:13 10° N
Cosmos 2219 Rocket 2.2 19:28:19 10° SW 19:33:55 78° WNW 19:39:34 10° NNE
OBJECT-B 3.8 19:36:26 15° W 19:36:26 15° W 19:38:23 10° NW
SeaSat 1 4.1 19:33:39 10° NNE 19:38:00 32° NW 19:42:20 10° WSW
SJ 16-02 2.5 19:36:09 10° NW 19:39:34 40° WNW 19:39:34 40° WNW
Terra 3.7 19:42:57 22° NNE 19:42:57 22° NNE 19:44:51 10° N
USA 234 3.1 19:39:54 72° ENE 19:40:38 85° SSE 19:47:12 10° WSW
SL-16 R/B 4.4 19:37:58 10° W 19:42:27 23° NW 19:46:56 10° NNE
USA 281 3.9 19:47:39 41° NE 19:47:39 41° NE 19:53:20 10° NNW
Cosmos 2369 Rocket 3.7 19:47:00 10° NNW 19:50:42 27° NNE 19:50:42 27° NNE
BREEZE-M DEB (TANK) 4.5 19:49:51 10° W 19:51:09 25° WSW 19:51:09 25° WSW
Cosmos 2322 4.5 19:48:35 10° SW 19:54:08 50° NW 19:59:44 10° NNE
Cosmos 1898 Rocket 4.3 19:54:00 10° NNW 19:57:51 49° NW 19:57:51 49° NW
Spot 2 Rocket 4.5 20:01:34 44° NNW 20:01:34 44° NNW 20:05:04 10° NNW
ERS-1 Rocket 4.3 20:04:10 33° N 20:04:10 33° N 20:06:57 10° NNW
ATLAS CENTAUR R/B 4.2 20:02:36 10° W 20:03:11 13° WNW 20:03:11 13° WNW
Cosmos 2278 Rocket 3.8 20:26:21 10° NW 20:30:28 29° W 20:30:28 29° W
Cosmos 2360 Rocket 4.4 20:27:29 10° W 20:31:48 22° NNW 20:36:10 10° NNE
Cosmos 2333 Rocket 3.8 20:36:33 10° WSW 20:41:35 31° NW 20:46:42 10° NNE
Cosmos 1943 Rocket 3.8 20:45:32 10° NNW 20:48:24 31° NNW 20:48:24 31° NNW
Cosmos 2219 Rocket 4.3 21:14:26 10° W 21:18:48 23° NW 21:23:12 10° NNE
Cosmos 2369 Rocket 4.4 21:30:49 10° NNW 21:32:29 20° NW 21:32:29 20° NW
CENTAUR R/B 4.4 22:41:38 28° NNE 22:41:38 28° NNE 22:45:39 10° NE
ATLAS 3B R/B 4.2 23:51:13 30° NNE 23:51:13 30° NNE 23:54:48 10° NE
